Change the Weather History Date:

Sunday, January 19, 2014

  Actual Average Record
Temperature  
Mean Temperature 34 °F -  
Max Temperature 46 °F 34 °F 53 °F (2000)
Min Temperature 21 °F 16 °F -11 °F (1984)
Degree Days  
Heating Degree Days 32    
Moisture  
Dew Point 13 °F    
Average Humidity 48    
Maximum Humidity 63    
Minimum Humidity 25    
Precipitation  
Precipitation 0.00 in - - ()
Sea Level Pressure  
Sea Level Pressure 30.39 in    
Wind  
Wind Speed 5 mph (NE)    
Max Wind Speed 9 mph    
Max Gust Speed -    
Visibility 10 miles    
Events      
Averages and records for this station are not official NWS values.
T = Trace of Precipitation, MM = Missing Value Source: NWS Daily Summary

Daily Weather History Graph

Daily Weather History Graph

Search for Another Location

Airport or City:

Trip Planner

Search our weather history database for the weather conditions in past years. The results will help you decide how hot, cold, wet, or windy it might be!

Date:

Astronomy

Jan. 19, 2014 Rise Set
Actual Time 7:40 AM MST 5:27 PM MST
Civil Twilight 7:10 AM MST 5:57 PM MST
Nautical Twilight 6:37 AM MST 6:30 PM MST
Astronomical Twilight 6:05 AM MST 7:02 PM MST
Moon 9:08 PM MST (1/19) 9:12 AM MST (1/19)
Length of Visible Light 10h 46m
Length of Day
9h 47m
Waning Gibbous, 89% of the Moon is Illuminated
Jan 19
Waning Gibbous
Jan 23
Last Quarter
Jan 30
New
Feb 6
First Quarter
Feb 14
Full

Hourly Weather History & Observations

Time (MST) Temp. Windchill Dew Point Humidity Pressure Visibility Wind Dir Wind Speed Gust Speed Precip Events Conditions
12:53 AM 24.1 °F 19.7 °F 10.9 °F 57% 30.40 in 10.0 mi NE 3.5 mph - N/A   Clear
1:53 AM 23.0 °F 14.7 °F 10.9 °F 60% 30.39 in 10.0 mi NNE 6.9 mph - N/A   Clear
2:53 AM 24.1 °F 16.0 °F 12.0 °F 60% 30.39 in 10.0 mi NNE 6.9 mph - N/A   Clear
3:53 AM 23.0 °F 17.0 °F 10.9 °F 60% 30.39 in 10.0 mi North 4.6 mph - N/A   Clear
4:53 AM 23.0 °F 15.8 °F 10.9 °F 60% 30.39 in 10.0 mi NNE 5.8 mph - N/A   Clear
5:53 AM 23.0 °F 18.4 °F 10.9 °F 60% 30.42 in 10.0 mi NNE 3.5 mph - N/A   Clear
6:53 AM 21.0 °F - 10.0 °F 63% 30.46 in 10.0 mi Calm Calm - N/A   Clear
7:53 AM 21.0 °F 13.4 °F 10.0 °F 63% 30.48 in 10.0 mi North 5.8 mph - N/A   Clear
8:53 AM 32.0 °F - 14.0 °F 48% 30.44 in 10.0 mi Calm Calm - N/A   Clear
9:53 AM 35.1 °F - 14.0 °F 42% 30.44 in 10.0 mi Calm Calm - N/A   Clear
10:53 AM 37.9 °F 35.5 °F 15.1 °F 39% 30.44 in 10.0 mi ESE 3.5 mph - N/A   Clear
11:53 AM 42.1 °F 38.4 °F 15.1 °F 34% 30.41 in 10.0 mi ESE 5.8 mph - N/A   Clear
12:53 PM 44.1 °F 40.1 °F 14.0 °F 30% 30.37 in 10.0 mi South 6.9 mph - N/A   Clear
1:53 PM 46.0 °F 43.9 °F 15.1 °F 29% 30.33 in 10.0 mi Variable 4.6 mph - N/A   Clear
2:53 PM 46.9 °F - 12.9 °F 25% 30.31 in 10.0 mi Calm Calm - N/A   Clear
3:53 PM 46.9 °F - 14.0 °F 27% 30.32 in 10.0 mi SE 5.8 mph - N/A   Clear
4:53 PM 45.0 °F 42.6 °F 14.0 °F 29% 30.32 in 10.0 mi SE 4.6 mph - N/A   Clear
5:53 PM 37.0 °F 31.0 °F 16.0 °F 42% 30.36 in 10.0 mi East 8.1 mph - N/A   Clear
6:53 PM 30.0 °F 21.7 °F 12.0 °F 47% 30.40 in 10.0 mi NE 9.2 mph - N/A   Clear
7:53 PM 28.0 °F 22.8 °F 12.0 °F 51% 30.40 in 10.0 mi North 4.6 mph - N/A   Clear
8:53 PM 26.1 °F 20.5 °F 12.0 °F 55% 30.36 in 10.0 mi North 4.6 mph - N/A   Clear
9:53 PM 26.1 °F 19.4 °F 12.9 °F 58% 30.35 in 10.0 mi NNE 5.8 mph - N/A   Clear
10:53 PM 25.0 °F 17.1 °F 12.9 °F 60% 30.35 in 10.0 mi NE 6.9 mph - N/A   Clear
11:53 PM 24.1 °F 19.7 °F 12.9 °F 62% 30.34 in 10.0 mi ENE 3.5 mph - N/A   Clear